Weather in Tunka

Russia / Republic of Buryatia     51°44′36″N   102°32′32″E
temp.,
°C
wind,
m/s
gust,
m/s
humid.,
%
clouds,
%
prec.,
mm/h
press.,
hPa
HPBL,
m
17 may, tue
tue1723:00+13sse014811 0.0 101012
02:00+11e1151100 0.0 101112
05:00+10e125998 0.0 101215
08:00+14ene355787 0.0 1013421
11:00+17ene325341 0.1 10121214
14:00+20ene324296 0.5 10102091
17:00+19e224427 0.2 10101149
20:00+17ne115293 0.2 101112
18 may, wed
wed1823:00+13ese115785 0.0 101419
02:00+10ene01659 0.0 101510
05:00+9ssw01707 0.0 101610
08:00+13nw11605 0.0 1016220
11:00+19nw11446 0.0 1014696
14:00+23nnw12295 0.0 10121717
17:00+24sw11258 0.0 10101753
20:00+20se22383 0.0 101012
19 may, thu
thu1923:00+14ese11505 0.0 101313
02:00+12s115526 0.0 101410
05:00+11ese00605 0.0 101510
08:00+15nnw11508 0.0 1015178
11:00+22sse01365 0.0 1013549
14:00+26w132192 0.0 10101960
17:00+27ne342080 0.0 10072522
20:00+21e47416 0.0 1008149
20 may, fri
fri2023:00+15e125062 0.0 101014
02:00+13ssw11555 0.0 101110
05:00+12se016099 0.0 101110
08:00+17wnw014712 0.0 1010163
11:00+24w013111 0.0 1008398
14:00+28ne542274 0.0 10062847
17:00+27ne4428100 0.0 10052222
20:00+19ene4761100 0.4 1008287
21 may, sat
sat2123:00+13ene3490100 3.9 1013123
02:00+14ne2587100 4.8 1013211
05:00+11se2490100 11.6 1016218
08:00+10ene2384100 14.9 1020361
11:00+13sse116136 0.1 10191180
14:00+17wsw22477 0.1 10161166
17:00+19w114024 0.0 10141058
20:00+16ne115396 0.0 101311